Temperature
16 16 16 16 16 16 16 16 16 16 15 15 15 15 15 15 14 14 14 14 14 14 14 14 14 14 13 13 13 13 13 13 12 12 12 12 13 13 13 13 13 13 13
15 15 16 16 16 16 16 16 16 16 15 15 15 15 15 15 14 14 14 14 14 14 14 14 14 13 13 13 13 13 13 12 12 12 11 12 12 13 13 13 13 13 12
15 15 15 15 16 16 16 16 16 16 16 15 15 15 14 14 14 14 14 14 14 14 14 14 13 13 13 13 13 13 13 12 12 12 11 11 12 12 12 12 12 12 12
15 15 15 15 16 16 16 16 16 16 16 15 15 15 14 14 14 15 15 14 14 14 14 14 13 13 13 13 13 13 13 12 12 12 12 11 11 11 11 11 11 11 11
14 14 15 15 15 15 15 16 16 16 16 15 15 15 15 14 14 14 14 14 14 14 14 13 13 13 13 13 13 13 12 12 12 11 11 11 11 10 10 10 10 10 11
14 14 14 15 15 15 15 15 15 15 15 15 15 15 15 14 14 14 14 14 14 14 13 13 13 13 13 13 13 12 12 12 11 11 11 11 10 10 10 10 10 10 10
13 13 14 14 14 15 15 15 15 15 15 15 15 14 14 14 14 14 14 14 13 13 13 13 13 13 13 12 12 12 12 11 11 11 11 10 10 10 10 9 9 9 9
12 12 13 13 14 14 14 14 14 14 14 14 14 14 14 14 13 13 13 13 13 13 13 12 12 12 12 12 12 11 11 11 11 10 10 10 10 9 9 9 9 8 8
11 11 12 13 13 13 13 14 13 13 13 13 13 13 13 13 13 13 13 12 12 12 12 12 12 12 11 11 11 11 11 10 10 10 9 9 9 9 8 8 8 8 7
10 10 11 12 12 12 12 12 12 12 12 13 12 12 12 12 12 12 12 12 11 11 11 11 11 11 11 10 10 10 10 9 9 9 9 9 8 8 8 8 7 7 7
9 9 10 10 11 11 11 11 11 11 11 11 11 11 11 11 11 11 11 11 10 10 10 10 10 10 10 10 9 9 9 9 8 8 8 8 7 7 7 7 7 7 6
8 8 9 9 10 10 10 10 10 11 11 11 11 10 10 10 10 10 10 10 9 9 9 9 9 9 9 9 8 8 8 8 8 7 7 7 7 6 6 6 6 6 6
8 8 8 9 9 9 10 10 10 10 10 10 10 10 9 9 9 9 9 9 9 9 8 8 8 8 8 7 7 7 7 7 7 7 6 6 6 6 6 6 5 5 5
8 8 8 8 9 9 9 9 9 9 9 9 9 9 9 8 8 8 8 8 8 7 7 7 7 7 7 6 6 6 6 6 6 6 5 5 5 5 5 5 5 4 4
8 8 8 8 9 9 9 9 9 9 8 8 8 8 8 7 7 7 7 7 6 6 6 6 6 6 6 6 6 6 5 5 5 5 5 4 4 4 4 4 4 3 3
8 8 8 8 8 9 9 8 8 8 8 8 7 7 7 6 6 6 6 5 5 5 5 5 5 5 5 5 5 4 4 4 4 4 4 3 3 3 3 3 3 3 2
8 8 8 8 8 9 8 8 8 8 7 7 6 6 6 5 5 5 5 5 4 4 4 4 4 4 4 4 4 4 3 3 3 3 3 3 2 2 2 2 2 2 2
8 8 8 8 8 8 8 8 7 7 7 6 6 5 5 5 4 4 4 4 3 3 3 3 3 3 3 3 3 3 3 2 2 2 2 2 1 1 1 1 1 1 1
8 8 8 8 8 8 8 8 7 7 6 6 6 5 5 4 4 4 3 3 3 3 2 2 2 2 2 2 2 2 2 2 1 1 1 1 1 1 1 0 0 -0 -0
8 8 8 8 8 8 8 7 7 6 6 6 5 4 4 4 3 3 3 2 2 2 2 2 2 1 1 1 1 1 1 1 1 1 0 0 0 0 -0 -0 -1 -1 -1
7 7 7 7 7 7 7 7 6 6 5 5 4 4 3 3 3 2 2 2 1 1 1 1 1 1 1 1 1 0 0 0 0 0 -0 -0 -0 -1 -1 -1 -1 -1 -1
7 7 7 7 7 6 6 6 6 5 5 4 4 3 3 2 2 2 1 1 1 1 1 0 0 0 0 0 0 -0 -0 -0 -0 -1 -1 -1 -1 -1 -1 -1 -2 -2 -2
6 6 6 6 6 6 5 5 5 5 4 4 3 3 2 2 2 1 1 1 1 0 0 0 0 0 -0 -0 -0 -1 -1 -1 -1 -1 -1 -1 -1 -2 -2 -2 -2 -2 -3
5 5 5 5 5 5 5 4 4 4 4 3 3 2 2 1 1 1 1 1 0 0 0 -0 -0 -0 -0 -0 -1 -1 -1 -1 -1 -1 -2 -2 -2 -2 -2 -2 -2 -3 -3
5 5 5 4 4 4 4 4 3 3 3 2 2 2 1 1 1 1 1 0 0 -0 -0 -0 -0 -0 -0 -1 -1 -1 -1 -2 -2 -2 -2 -2 -2 -2 -2 -3 -3 -3 -3
4 4 4 4 4 3 3 3 3 3 2 2 2 1 1 1 1 1 0 0 -0 -0 -0 -0 -1 -1 -1 -1 -1 -1 -2 -2 -2 -2 -2 -2 -2 -2 -3 -3 -3 -3 -3
Wind_Speed
11 8 7 7 8 9 11 12 13 12 11 8 8 7 8 7 7 7 9 11 11 11 11 8 9 9 8 9 9 8 8 8 6 6 7 9 10 10 9 9 9 9 10
11 9 7 7 8 9 10 11 12 12 11 9 8 6 6 6 7 7 8 10 11 11 10 10 8 9 8 10 10 9 6 6 6 6 6 6 6 7 7 7 6 7 7
13 11 9 8 7 7 9 9 10 10 11 10 7 4 4 3 5 7 7 9 11 11 11 11 10 9 9 9 10 10 10 8 8 8 7 6 5 4 4 5 5 5 5
12 11 9 8 8 7 6 8 8 9 9 10 9 10 8 8 8 6 7 7 9 9 10 10 10 9 8 9 9 9 9 9 8 7 8 9 7 6 5 4 4 4 4
14 12 10 9 7 6 5 6 7 8 8 9 10 10 9 8 6 6 7 7 7 8 9 9 9 8 8 9 9 9 9 8 9 7 6 8 8 9 8 8 6 4 3
13 12 9 7 6 5 5 6 7 7 7 9 9 10 10 9 8 8 7 6 5 5 7 7 7 7 7 8 8 8 9 9 9 8 7 6 6 7 8 10 8 7 4
11 11 10 9 8 7 7 7 7 7 7 8 8 8 9 9 10 9 8 7 5 5 6 6 6 6 6 7 6 7 7 8 8 8 7 7 8 6 6 8 8 7 4
10 10 10 8 8 8 7 7 8 7 6 6 6 6 6 5 5 6 5 5 5 4 4 5 5 5 6 5 5 5 6 6 7 7 7 6 5 5 6 6 6 6 5
8 8 8 7 7 7 7 8 8 7 6 5 5 5 4 4 4 4 4 3 3 3 4 4 4 4 4 5 5 4 5 4 4 4 4 4 3 3 4 4 5 5 6
6 7 6 7 7 7 6 7 6 6 5 5 4 3 3 3 3 3 3 3 2 2 3 3 3 3 3 3 3 3 3 3 2 2 3 2 2 1 1 2 3 3 4
5 6 6 7 7 7 7 7 6 6 5 4 4 4 4 3 3 2 2 2 2 2 2 2 2 2 1 2 2 2 2 3 2 2 2 1 1 1 0 0 0 1 2
4 5 6 7 8 8 7 6 6 5 5 4 4 4 4 3 3 2 2 1 1 1 1 1 1 1 1 1 2 2 2 2 2 2 2 2 2 2 2 1 1 1 0
5 6 7 7 7 7 7 6 5 5 4 4 4 4 3 3 3 3 2 2 2 2 2 2 2 2 2 2 2 2 3 3 3 2 2 2 3 3 2 2 2 2 1
6 6 7 7 7 6 6 6 5 5 5 4 4 4 3 3 3 3 3 2 2 2 3 3 3 2 2 3 3 4 4 4 4 4 3 3 3 3 3 3 3 2 2
6 7 7 7 7 7 6 6 5 5 5 5 5 4 4 3 3 3 3 3 3 3 3 3 3 3 2 2 4 4 5 5 5 5 4 4 5 5 4 3 2 2 2
7 7 7 8 8 8 7 7 6 6 6 5 5 5 5 4 4 4 3 3 3 3 3 3 3 3 3 5 5 4 5 5 5 5 5 5 5 6 6 6 5 3 2
8 8 8 8 8 8 8 8 7 7 6 6 5 6 5 5 5 4 4 4 3 3 3 3 4 4 5 6 6 5 4 4 4 4 4 3 4 4 4 5 5 5 4
7 8 7 7 7 7 7 7 7 7 7 6 6 6 6 6 5 5 4 4 3 3 3 3 4 4 5 6 7 7 5 4 4 3 3 4 3 3 3 3 2 2 2
5 5 5 6 6 7 7 7 7 7 7 7 7 7 7 7 6 6 5 4 4 4 3 3 4 4 5 6 7 5 4 4 4 3 2 2 2 4 3 2 1 1 1
2 2 3 4 5 6 7 7 7 7 8 7 7 7 7 7 7 6 6 5 5 4 4 4 4 4 4 5 6 5 3 3 3 2 2 2 2 3 3 1 2 1 1
2 2 3 4 4 5 6 6 6 7 6 5 6 6 7 7 7 6 6 5 5 5 4 4 3 3 4 5 6 6 3 3 3 3 2 2 3 3 3 2 2 2 2
3 2 2 2 3 4 5 5 5 5 5 5 6 6 7 6 6 6 6 6 6 6 5 5 4 3 4 5 6 7 5 4 3 3 2 2 4 3 3 3 3 3 3
2 2 2 2 2 3 4 4 4 4 5 6 6 6 6 6 6 7 7 6 6 5 5 5 5 4 4 5 7 7 7 6 4 3 3 4 4 4 4 4 4 4 3
2 1 1 1 1 2 3 3 3 5 6 6 6 6 6 6 6 6 6 6 6 6 6 6 6 5 5 5 5 5 5 6 5 4 4 5 5 4 4 4 4 4 4
1 1 1 1 2 2 3 3 4 5 6 6 6 6 6 6 6 6 6 7 7 7 7 6 6 6 6 7 9 7 5 5 5 4 3 4 4 4 4 4 4 4 4
1 2 2 2 2 2 3 3 4 5 6 6 6 5 6 6 6 6 5 7 7 9 10 9 7 7 8 8 10 12 11 10 9 6 5 5 5 5 5 5 5 5 5
Wind_Direction
216 209 204 201 198 201 205 205 203 201 193 189 191 196 204 203 204 208 211 208 210 209 212 217 221 216 220 225 227 229 234 237 241 254 265 261 252 250 247 247 250 248 246
214 209 201 195 193 195 201 203 203 198 194 195 195 200 201 208 209 207 213 213 213 210 211 217 220 217 222 227 228 223 230 234 220 234 262 276 262 236 237 239 241 249 245
219 212 205 199 193 193 198 200 199 194 194 194 189 181 185 191 201 209 213 215 214 214 215 220 224 224 224 228 226 220 224 233 225 224 235 253 265 285 226 227 233 240 243
222 217 212 207 200 196 193 200 196 193 193 192 194 198 205 214 214 210 211 213 214 217 220 223 225 227 226 232 231 226 225 232 237 229 234 245 268 269 272 233 226 236 248
223 219 214 211 206 194 190 194 193 194 191 194 199 205 215 221 214 208 212 214 214 217 220 224 225 229 230 233 234 231 229 229 236 233 228 237 245 247 255 267 254 238 237
224 220 215 207 205 191 185 189 187 191 192 196 201 206 212 213 210 211 214 215 214 215 220 224 228 232 233 234 235 233 231 232 236 237 232 230 233 233 236 251 258 257 243
219 214 209 204 200 191 185 186 185 188 190 195 202 210 216 218 218 218 219 218 217 218 222 222 227 232 236 238 238 236 236 233 233 235 236 237 240 243 241 251 261 258 243
218 214 207 203 196 189 183 180 183 183 183 189 195 201 207 214 218 220 220 219 219 219 221 224 229 235 237 237 234 235 236 236 235 239 238 238 241 241 238 246 254 257 244
215 210 199 192 187 182 180 176 174 171 172 175 178 181 187 194 198 201 208 213 213 213 216 219 227 233 238 239 235 233 235 232 235 240 239 241 251 253 250 249 247 250 254
207 198 186 176 170 168 166 163 164 161 158 158 156 153 154 158 167 177 188 195 195 203 213 218 222 225 231 232 225 225 226 215 215 220 220 226 238 248 258 247 246 249 255
191 182 171 164 159 157 158 154 155 152 150 149 146 145 142 143 148 153 162 171 175 190 200 200 201 204 208 211 207 204 201 195 183 176 178 172 163 161 137 146 177 226 240
174 168 162 160 160 160 159 158 158 155 152 150 149 144 139 139 140 137 129 132 142 138 143 149 156 151 154 164 178 168 163 169 164 156 147 137 119 115 97 102 105 102 66
170 167 166 168 168 166 164 163 162 158 153 151 149 144 142 141 135 126 116 112 116 116 112 117 121 114 107 113 120 129 124 116 110 108 120 121 128 117 96 94 95 88 82
185 181 178 179 176 173 171 170 167 161 156 153 152 153 149 143 135 125 117 112 112 112 102 94 94 96 100 109 117 120 117 108 98 91 89 93 108 115 114 103 98 98 101
203 196 193 189 184 180 178 176 171 166 163 162 163 161 152 144 139 134 126 120 117 112 110 109 104 102 102 114 123 121 120 118 110 97 90 84 84 86 92 97 104 107 108
219 211 205 201 196 192 187 182 179 173 171 173 172 164 159 156 154 148 141 135 129 123 121 121 119 112 106 117 121 126 126 124 123 115 105 98 92 92 90 87 78 71 96
227 219 213 209 205 199 191 187 182 174 176 179 176 173 170 167 164 157 153 150 141 133 130 125 119 114 116 127 127 124 125 124 124 125 124 109 100 100 103 96 89 76 64
230 223 217 212 205 195 188 183 176 177 180 183 183 179 177 174 169 167 166 160 151 147 142 135 132 127 126 129 128 125 119 117 121 126 133 132 129 115 113 106 88 78 73
237 227 217 206 195 188 180 175 178 183 188 192 189 185 182 179 177 177 174 165 158 155 154 150 151 146 140 142 142 138 133 133 133 131 135 142 148 144 142 140 135 130 103
226 203 187 178 179 176 172 176 184 191 200 198 191 185 184 184 184 182 176 171 168 166 160 156 162 163 160 160 163 165 159 157 156 156 159 170 181 168 178 196 201 223 219
79 130 148 158 164 165 172 184 193 204 202 189 184 183 184 185 183 177 176 173 170 167 166 165 170 179 181 178 182 187 188 185 180 185 193 191 192 201 206 238 247 247 259
66 95 123 130 145 166 179 192 205 200 183 180 183 183 182 179 176 176 175 176 174 174 177 179 183 190 195 200 196 198 201 199 199 207 211 205 204 219 227 242 242 232 241
50 61 100 121 151 182 196 206 202 182 179 183 186 185 182 181 180 181 180 179 184 189 192 192 197 199 201 206 211 208 205 207 217 219 219 224 218 226 235 241 238 228 236
28 38 75 150 199 206 217 220 199 185 186 189 189 185 185 186 185 187 190 192 194 197 199 202 205 204 206 209 206 207 208 209 216 221 219 220 219 233 241 238 233 235 241
343 322 269 263 263 242 233 222 202 192 194 195 194 192 194 192 192 197 203 206 208 206 205 208 207 205 213 213 207 205 207 208 208 204 214 220 223 230 232 235 237 236 234
308 297 286 277 273 257 244 226 207 199 198 200 201 200 197 197 197 197 208 218 221 219 221 221 217 220 226 216 214 215 218 219 215 216 230 233 234 238 240 241 240 238 238
Height
1510 1512 1514 1516 1518 1521 1525 1527 1530 1533 1536 1538 1541 1543 1545 1547 1549 1551 1553 1554 1555 1556 1557 1558 1559 1560 1561 1562 1562 1563 1563 1563 1564 1564 1563 1562 1561 1560 1560 1560 1559 1559 1558
1506 1508 1510 1513 1515 1518 1521 1524 1527 1530 1533 1535 1538 1540 1542 1544 1546 1548 1549 1551 1552 1553 1553 1554 1556 1556 1557 1558 1558 1559 1559 1559 1560 1560 1560 1559 1558 1555 1555 1555 1555 1555 1554
1503 1505 1507 1509 1512 1515 1518 1521 1524 1526 1529 1532 1535 1536 1538 1540 1542 1543 1545 1546 1548 1549 1549 1550 1551 1552 1553 1553 1554 1554 1554 1555 1555 1555 1556 1556 1554 1553 1551 1550 1550 1550 1550
1499 1501 1503 1506 1509 1512 1515 1518 1520 1523 1526 1528 1531 1532 1534 1536 1538 1539 1541 1542 1543 1544 1545 1546 1547 1547 1548 1548 1549 1549 1549 1549 1549 1550 1550 1550 1550 1550 1547 1546 1545 1545 1545
1495 1497 1500 1503 1505 1508 1511 1514 1517 1519 1522 1524 1526 1528 1530 1533 1534 1535 1536 1538 1538 1539 1539 1540 1541 1542 1542 1542 1543 1543 1543 1543 1544 1544 1543 1544 1544 1543 1543 1541 1541 1540 1539
1490 1493 1496 1499 1501 1504 1507 1510 1513 1515 1518 1520 1522 1524 1526 1528 1529 1531 1532 1532 1533 1533 1534 1535 1535 1536 1536 1536 1537 1537 1537 1537 1537 1537 1537 1537 1537 1537 1536 1535 1534 1534 1534
1485 1488 1490 1493 1496 1499 1503 1506 1508 1511 1514 1516 1518 1520 1522 1523 1524 1525 1527 1527 1527 1528 1528 1529 1529 1530 1530 1530 1530 1530 1530 1530 1530 1530 1530 1530 1530 1531 1530 1530 1529 1528 1527
1481 1483 1485 1488 1492 1495 1498 1501 1504 1507 1509 1511 1513 1515 1517 1518 1519 1520 1521 1521 1522 1522 1523 1523 1523 1524 1524 1524 1524 1524 1524 1524 1524 1524 1524 1524 1524 1524 1524 1524 1524 1522 1521
1477 1479 1481 1484 1487 1490 1493 1496 1499 1502 1504 1507 1509 1510 1512 1513 1514 1515 1516 1516 1517 1517 1517 1517 1517 1518 1518 1518 1518 1518 1518 1517 1517 1517 1517 1517 1517 1517 1517 1518 1518 1518 1516
1474 1476 1478 1480 1483 1486 1489 1492 1495 1498 1500 1502 1504 1505 1507 1508 1509 1510 1510 1511 1511 1512 1512 1512 1512 1512 1512 1512 1512 1512 1511 1511 1511 1511 1511 1511 1511 1511 1511 1512 1512 1512 1512
1472 1474 1475 1478 1480 1484 1487 1490 1492 1495 1497 1498 1500 1501 1503 1504 1505 1505 1506 1506 1506 1507 1507 1507 1507 1507 1507 1507 1507 1506 1506 1506 1506 1506 1506 1506 1506 1506 1506 1506 1506 1506 1506
1471 1472 1474 1476 1479 1481 1484 1487 1489 1492 1493 1495 1497 1498 1499 1500 1500 1501 1501 1502 1502 1502 1502 1502 1502 1502 1502 1502 1502 1502 1502 1502 1502 1502 1501 1501 1501 1502 1501 1501 1501 1501 1501
1470 1472 1473 1475 1478 1480 1483 1485 1487 1489 1491 1492 1493 1494 1495 1496 1496 1497 1497 1498 1498 1498 1498 1498 1498 1498 1498 1498 1498 1498 1498 1498 1498 1498 1498 1497 1498 1497 1497 1497 1497 1497 1497
1470 1471 1473 1475 1477 1479 1481 1483 1485 1487 1488 1489 1490 1491 1492 1492 1493 1493 1493 1494 1494 1494 1494 1494 1494 1494 1494 1494 1494 1494 1494 1494 1494 1494 1494 1494 1494 1494 1493 1493 1493 1493 1493
1469 1470 1472 1473 1475 1477 1479 1481 1483 1484 1485 1487 1487 1488 1488 1489 1489 1490 1490 1490 1490 1490 1490 1490 1490 1490 1490 1490 1490 1490 1490 1490 1490 1490 1490 1490 1490 1490 1490 1490 1490 1490 1490
1468 1469 1470 1472 1474 1475 1477 1479 1480 1482 1483 1484 1485 1485 1485 1486 1486 1487 1487 1487 1487 1487 1487 1487 1487 1487 1487 1487 1487 1487 1487 1487 1487 1487 1487 1487 1487 1487 1487 1487 1487 1487 1487
1465 1466 1468 1470 1471 1473 1475 1476 1478 1479 1480 1481 1482 1482 1482 1483 1483 1483 1484 1484 1484 1484 1484 1484 1484 1484 1484 1484 1485 1485 1485 1485 1485 1485 1485 1485 1485 1485 1484 1484 1484 1484 1484
1462 1464 1465 1467 1469 1471 1472 1474 1475 1476 1477 1478 1479 1479 1479 1480 1480 1480 1481 1481 1481 1481 1482 1482 1482 1482 1482 1482 1482 1482 1482 1482 1482 1482 1482 1482 1482 1482 1482 1482 1481 1481 1481
1460 1461 1463 1464 1466 1468 1469 1471 1472 1473 1474 1475 1475 1476 1476 1477 1477 1477 1478 1478 1479 1479 1479 1479 1479 1480 1480 1480 1480 1480 1480 1480 1480 1480 1480 1480 1480 1480 1480 1479 1479 1479 1478
1457 1458 1460 1461 1463 1465 1466 1468 1469 1470 1471 1471 1472 1472 1473 1473 1474 1475 1475 1476 1476 1476 1477 1477 1477 1477 1478 1478 1478 1478 1478 1478 1478 1478 1478 1478 1478 1478 1477 1477 1477 1476 1476
1456 1457 1458 1459 1461 1462 1463 1465 1466 1467 1468 1468 1468 1469 1469 1470 1471 1471 1472 1473 1473 1474 1474 1474 1475 1475 1476 1476 1476 1476 1476 1476 1476 1476 1476 1476 1476 1475 1475 1475 1474 1474 1473
1456 1456 1457 1458 1459 1460 1461 1462 1463 1464 1464 1464 1465 1465 1466 1467 1467 1468 1469 1470 1470 1471 1471 1472 1472 1473 1473 1474 1474 1474 1474 1474 1474 1474 1474 1474 1473 1473 1473 1472 1471 1471 1470
1455 1456 1456 1457 1457 1458 1459 1460 1460 1460 1461 1461 1461 1462 1463 1463 1464 1465 1466 1467 1467 1468 1468 1469 1470 1470 1471 1471 1471 1471 1472 1472 1472 1472 1471 1471 1471 1470 1470 1469 1468 1468 1467
1455 1455 1455 1455 1456 1456 1456 1457 1457 1457 1457 1458 1458 1459 1459 1460 1461 1462 1463 1463 1464 1465 1465 1466 1467 1467 1468 1468 1469 1469 1469 1469 1469 1469 1469 1468 1468 1467 1467 1466 1465 1464 1464
1454 1454 1454 1454 1454 1454 1454 1454 1454 1454 1454 1455 1455 1456 1456 1457 1458 1459 1459 1460 1461 1462 1463 1463 1464 1464 1465 1465 1466 1466 1466 1466 1466 1466 1466 1465 1465 1464 1463 1462 1462 1461 1460
1453 1452 1452 1451 1451 1451 1451 1451 1451 1451 1451 1451 1452 1452 1453 1453 1454 1455 1456 1456 1457 1458 1459 1459 1460 1461 1462 1462 1462 1463 1463 1463 1463 1463 1462 1461 1461 1460 1459 1459 1458 1457 1456